Other Surface Observations
Issued by NWS Tucson, AZ

Home | Current Version | Previous Version | Text Only | Print | Product List | Glossary On
Versions: 1 2 3 4 5 6 7 8 9 10 11 12 13 14 15 16 17 18 19 20 21 22 23 24 25 26 27 28 29 30 31 32 33 34 35 36 37 38 39 40 41 42 43 44 45 46 47 48 49 50
118
SXUS55 KTWC 252015
OSOTWC

WEATHER ROUNDUP FOR SOUTHEAST ARIZONA
NATIONAL WEATHER SERVICE TUCSON AZ
115 PM MST THU AUG 25 2016

AZZ504>506-514-252115-
LOCATION       SKY/WX    TMP DP  RH WIND       PRES   REMARKS
TUCSON         SUNNY     94  50  22 VRB7      30.02F
DAVIS-MONTHAN  SUNNY     92  51  24 VRB7      30.00F
CHILDRENS PARK N/A      N/A N/A  24 W2                PIMA CO DEQ
ALVERNON/22ND  N/A       90 N/A N/A NW3               PIMA CO DEQ
CHERRY/GLENN   N/A      N/A N/A N/A N/A               PIMA CO DEQ
TANGERINE      N/A       92 N/A N/A N/A               PIMA CO DEQ
CONTL RANCH    N/A       94  48  21 SW6               PIMA CO DEQ
GRANT/1ST      N/A       91  49  24 NW0               PIMA CO DEQ
CRAYCROFT/22ND N/A       91  50  25 N/A               PIMA CO DEQ
GOLFLINKS/KOLB N/A      N/A N/A N/A N/A               PIMA CO DEQ
AJO/12TH       N/A       92  51  25 S4                PIMA CO DEQ
SAGUARO EAST   N/A       32   3  28 W4                PIMA CO DEQ
FAIRGROUNDS    N/A       89 N/A N/A N/A               PIMA CO DEQ
SAGUARO        N/A       95  54  25 S3                *SABINO CYN
SAN CARLOS     N/A       94  49  22 S5G10             *SAN CARLOS
GREEN VALLEY   N/A       90  51  27 SW3               PIMA CO DEQ
HORSE CAMP CYN N/A       87  47  25 W8G15             *ARAVAIPA CYN
RINCON MTNS    N/A       71  49  46 SW3               *NR MANNING CAMP
$$

AZZ509>511-252115-
LOCATION       SKY/WX    TMP DP  RH WIND       PRES   REMARKS
SAFFORD        SUNNY     93  45  19 W7        30.01F
STRAY HORSE    N/A       67  41  39 W5G10             *
TRAIL CABIN    N/A       77  46  33 S4                *N OF GRANVILLE
BLACK HILLS    NOT AVBL
DRY LAKE       N/A       78  42  28 SW5G12            *NATANES MTNS
NOON CREEK     N/A       74  54  50 SW7G13            *PINALENO MTNS
COLUMBINE      N/A       61  42  50 SW3               *PINALENO MTNS
GUTHRIE        N/A       80  44  28 SW7G19            *SW OF GUTHRIE
$$

AZZ502-503-513-252115-
LOCATION       SKY/WX    TMP DP  RH WIND       PRES   REMARKS
NOGALES        MOSUNNY   88  53  30 MISG      30.10F
SELLS          N/A       94  52  24 NE7G12            *
SASABE         N/A       89  57  34 W4G11             *ALTAR VLY
HOPKINS        N/A       72  51  47 W5G10             *SANTA RITA MTNS
CARR CYN       N/A       75  46  36 S3G12             *W OF HEREFORD
$$

AZZ507-508-512-252115-
LOCATION       SKY/WX    TMP DP  RH WIND       PRES   REMARKS
SIERRA VISTA   PTSUNNY   84  49  29 SW12      30.16F
DOUGLAS        MOSUNNY   87  50  27 VRB3      30.11F
EMPIRE MTNS    NOT AVBL
MULESHOE RANCH N/A       87  46  24 N6G15             *PRESERVE
HEADQUARTERS   N/A       63  52  68 E10G19            *CHIRICAHUA MTNS
$$

.............................NOTES.............................
THIS IS AN AUTOMATED COLLECTIVE WITH MINIMAL QUALITY CONTROL.
PIMA CO DEQ SITES HAVE NONSTANDARD WIND SENSOR HEIGHTS.
PIMA CO DEQ SITES DO NOT REPORT WIND GUSTS.
* INDICATES WIND SENSORS LOCATED AT 20 FEET INSTEAD OF 33 FEET.
..............................KEY..............................
SKY/WX - SKY CONDITION/WEATHER
TMP    - TEMPERATURE IN FAHRENHEIT
DP     - DEWPOINT IN FAHRENHEIT
RH     - RELATIVE HUMIDITY IN PERCENT
WIND   - DIRECTION AND SPEED IN MILES PER HOUR (MPH)
VRB    - VARIABLE WIND DIRECTION
PRES   - MEAN SEA LEVEL PRESSURE IN INCHES OF MERCURY
         F - FALLING PRESSURE   R - RISING PRESSURE
         S - STEADY PRESSURE
VSB    - VISIBILITY IN MILES
HX     - HEAT INDEX IN FAHRENHEIT
WCI    - WIND CHILL INDEX IN FAHRENHEIT
N/A    - NOT AVAILABLE
AFB    - AIR FORCE BASE
         DAVIS-MONTHAN IS DAVIS-MONTHAN AIR FORCE BASE
CYN    - CANYON
MTNS   - MOUNTAINS
NCA    - NATIONAL CONSERVATION AREA
NR     - NEAR
VLY    - VALLEY
CONTL  - CONTINENTAL
PIMA CO DEQ - PIMA COUNTY DEPT OF ENVIRONMENTAL QUALITY



USA.gov is the U.S. government's official web portal to all federal, state and local government web resources and services.